EW1060 Weather Reports


Display with metric or nautical units.
time (UTC)temp
F
wind
direction
speed
MPH
gust
MPH
rain 1hr
in
rain 24hr
in
rain mn
in
humidity
%
barometer
mb
20181116010004 43 202 0.0 1.0 0.00 0.00 0.00 92 1026.6
20181116004510 43 198 0.0 3.0 0.00 0.00 0.00 92 1026.3
20181116003012 43 194 2.0 3.0 0.00 0.00 0.00 92 1026.4
20181116001707 44 270 0.0 2.0 0.00 0.00 0.00 92 1026.4
20181116000217 44 236 2.0 4.0 0.00 0.00 0.00 91 1026.6
20181115234629 44 265 0.0 3.0 0.00 0.00 0.00 92 1026.6
20181115233257 44 250 0.0 0.0 0.00 0.00 0.00 92 1026.7
20181115231631 44 250 0.0 0.0 0.00 0.00 0.00 91 1026.8
20181115230125 44 250 0.0 0.0 0.00 0.00 0.00 91 1026.8
20181115224707 44 250 0.0 0.0 0.00 0.00 0.00 91 1026.8
20181115223102 44 250 0.0 3.0 0.00 0.00 0.00 91 1026.7
20181115221639 44 279 0.0 3.0 0.00 0.00 0.00 91 1026.6
20181115220137 44 279 0.0 3.0 0.00 0.00 0.00 91 1026.5
20181115214744 45 279 2.0 3.0 0.00 0.00 0.00 91 1026.5
20181115213357 45 247 0.0 3.0 0.00 0.00 0.00 92 1026.6
20181115211619 45 150 0.0 0.0 0.00 0.00 0.00 91 1026.5
20181115210133 45 150 0.0 0.0 0.00 0.00 0.00 91 1026.6
20181115204633 45 150 0.0 0.0 0.00 0.00 0.00 91 1026.7
20181115203112 45 150 0.0 0.0 0.00 0.00 0.00 91 1026.7
20181115201650 45 150 0.0 1.0 0.00 0.00 0.00 91 1026.7
20181115200126 45 345 0.0 1.0 0.00 0.00 0.00 91 1026.7
20181115200046 45 345 0.0 1.0 0.00 0.00 0.00 91 1026.7
20181115194620 45 345 0.0 2.0 0.00 0.00 0.00 91 1026.8
20181115193101 45 345 0.0 2.0 0.00 0.00 0.00 91 1026.7
20181115191714 45 345 0.0 0.0 0.00 0.00 0.00 91 1026.7
20181115190134 45 345 0.0 0.0 0.00 0.00 0.00 91 1026.6
20181115184558 45 345 0.0 1.0 0.00 0.00 0.00 90 1026.5
20181115183111 46 11 0.0 2.0 0.00 0.00 0.00 91 1026.4
20181115181606 46 11 0.0 1.0 0.00 0.00 0.00 91 1026.3
20181115180101 46 11 0.0 0.0 0.00 0.00 0.00 90 1026.3
20181115174605 46 11 0.0 0.0 0.00 0.00 0.00 90 1026.3
20181115173127 46 91 0.0 1.0 0.00 0.00 0.00 90 1026.4
20181115171553 46 107 0.0 3.0 0.00 0.00 0.00 89 1026.4
20181115170133 46 30 0.0 1.0 0.00 0.00 0.00 89 1026.3
20181115164641 46 78 0.0 1.0 0.00 0.00 0.00 89 1026.4
20181115163105 46 64 0.0 2.0 0.00 0.00 0.00 89 1026.3
20181115161605 46 67 0.0 1.0 0.00 0.00 0.00 89 1026.4
20181115160057 46 67 0.0 2.0 0.00 0.00 0.00 89 1026.6
20181115154540 46 74 0.0 1.0 0.00 0.00 0.00 89 1026.5
20181115153112 46 215 0.0 4.0 0.00 0.00 0.00 88 1026.6
20181115151608 46 65 0.0 3.0 0.00 0.00 0.00 89 1026.6
20181115150052 46 71 0.0 5.0 0.00 0.00 0.00 88 1026.8
20181115144544 46 71 0.0 3.0 0.00 0.00 0.00 88 1026.8
20181115143053 47 61 0.0 2.0 0.00 0.00 0.00 88 1026.7
20181115141620 46 65 0.0 2.0 0.00 0.00 0.00 89 1026.6
20181115140234 46 56 0.0 3.0 0.00 0.00 0.00 89 1026.6
20181115134554 46 27 0.0 1.0 0.00 0.00 0.00 89 1026.5
20181115133046 46 340 0.0 4.0 0.00 0.00 0.00 89 1026.6
20181115131546 46 336 2.0 4.0 0.00 0.00 0.00 89 1026.6
20181115130036 46 349 0.0 3.0 0.00 0.00 0.00 89 1026.6
20181115124530 46 307 1.0 3.0 0.00 0.00 0.00 88 1026.6
20181115123111 46 50 0.0 2.0 0.00 0.00 0.00 89 1026.5
20181115121538 46 332 0.0 2.0 0.00 0.00 0.00 89 1026.6
20181115120028 46 327 0.0 3.0 0.00 0.00 0.00 89 1026.7
20181115114525 46 328 0.0 3.0 0.00 0.00 0.00 90 1026.7
20181115113036 46 269 0.0 2.0 0.00 0.00 0.00 89 1026.8
20181115111531 45 244 0.0 2.0 0.00 0.00 0.00 90 1026.8
20181115110023 45 244 1.0 3.0 0.00 0.00 0.00 89 1026.9
20181115104514 45 197 0.0 2.0 0.00 0.00 0.00 90 1027.0
20181115103044 45 311 0.0 3.0 0.00 0.00 0.00 91 1027.1
20181115101513 44 280 1.0 4.0 0.00 0.00 0.00 91 1027.2
20181115100010 44 252 0.0 4.0 0.00 0.00 0.00 91 1027.5
20181115094510 44 234 1.0 3.0 0.00 0.00 0.00 91 1027.6
20181115093006 44 272 0.0 5.0 0.00 0.00 0.00 92 1027.6
20181115084720 43 217 2.0 5.0 0.00 0.00 0.00 92 1027.7
20181115083223 43 261 2.0 6.0 0.00 0.00 0.00 92 1027.6
20181115081613 43 183 2.0 4.0 0.00 0.00 0.00 92 1027.7
20181115080235 43 286 3.0 6.0 0.00 0.00 0.00 92 1027.7
20181115074621 43 264 0.0 3.0 0.00 0.00 0.00 92 1027.7
20181115073212 43 251 2.0 3.0 0.00 0.00 0.00 92 1027.6
20181115071644 43 210 2.0 4.0 0.00 0.00 0.00 92 1027.7
20181115070144 43 197 1.0 3.0 0.00 0.00 0.00 92 1027.6
20181115064628 43 205 2.0 5.0 0.00 0.00 0.00 92 1027.5
20181115063134 43 215 2.0 5.0 0.00 0.00 0.00 92 1027.4
20181115061608 44 215 1.0 4.0 0.00 0.00 0.00 92 1027.4
20181115060123 44 198 1.0 4.0 0.00 0.00 0.00 92 1027.4
20181115054656 44 202 1.0 3.0 0.00 0.00 0.00 92 1027.5
20181115053058 44 206 1.0 3.0 0.00 0.00 0.00 92 1027.5
20181115051542 44 199 0.0 2.0 0.00 0.00 0.00 92 1027.5
20181115050052 44 199 0.0 3.0 0.00 0.00 0.00 92 1027.5
20181115044551 44 196 1.0 4.0 0.00 0.00 0.00 92 1027.5
20181115043101 44 249 1.0 3.0 0.00 0.00 0.00 92 1027.5
20181115041621 45 276 1.0 3.0 0.00 0.00 0.00 92 1027.5
20181115040048 45 268 2.0 5.0 0.00 0.00 0.00 92 1027.5
20181115034608 45 266 0.0 3.0 0.00 0.00 0.00 92 1027.4
20181115033037 45 255 0.0 2.0 0.00 0.00 0.00 93 1027.4
20181115031600 45 194 0.0 3.0 0.00 0.00 0.00 93 1027.4
20181115030033 45 230 1.0 2.0 0.00 0.00 0.00 93 1027.4
20181115024539 45 230 0.0 0.0 0.00 0.00 0.00 93 1027.4
20181115023033 45 230 0.0 0.0 0.00 0.00 0.00 92 1027.4
20181115021532 45 230 0.0 0.0 0.00 0.00 0.00 93 1027.5
20181115020047 45 230 0.0 0.0 0.00 0.00 0.00 93 1027.5
20181115014612 45 230 0.0 0.0 0.00 0.00 0.00 93 1027.5
20181115013032 45 230 0.0 2.0 0.00 0.00 0.00 92 1027.4
20181115011551 45 228 1.0 4.0 0.00 0.00 0.00 92 1027.5